Wind_Speed
3 3 3 3 3 3 3 4 3 4 4 4 5 5 6 8 8 8 8 7 8 8 9 8 9 9 9 9 10 9 9 9 9 10 9 9 9 9 9 9 9 9 9
2 2 2 2 2 2 2 3 3 3 3 3 4 5 6 7 7 8 8 8 8 8 8 9 9 10 10 10 10 10 11 10 10 10 10 10 10 10 10 10 10 10 10
2 1 1 2 2 2 2 2 3 3 3 4 4 5 5 6 7 8 8 9 10 10 9 10 10 11 11 10 10 11 11 11 11 11 11 10 10 10 11 11 11 11 12
2 1 0 1 2 3 3 3 3 4 4 5 5 6 6 7 8 8 9 9 10 10 11 11 11 12 13 12 12 11 12 12 12 13 12 12 12 12 12 12 12 13 13
2 2 1 1 3 4 4 4 4 5 6 6 6 6 7 8 9 9 9 10 10 11 11 11 12 12 13 14 13 13 13 13 14 14 14 14 14 14 14 14 14 14 15
2 2 2 2 3 4 5 6 6 7 7 7 7 8 8 8 9 10 10 11 11 11 12 12 13 13 13 14 14 15 15 15 15 15 15 15 15 15 15 15 16 17 16
3 3 4 4 5 6 7 7 7 7 8 8 9 9 9 10 10 11 12 12 12 12 13 13 14 14 15 15 15 15 16 17 17 17 17 17 17 17 17 18 18 19 18
4 4 4 5 5 6 6 7 8 8 8 8 9 9 9 10 12 12 13 13 14 14 15 15 15 16 16 16 17 17 17 17 18 18 18 19 19 19 20 20 20 20 20
4 5 5 5 5 6 6 7 8 9 9 10 10 10 10 11 11 12 13 14 15 15 15 16 16 16 16 17 18 18 18 19 19 19 19 20 20 20 21 21 21 21 22
5 5 5 5 6 6 6 7 7 8 9 10 11 11 12 12 12 13 14 15 15 16 17 17 17 18 18 19 18 19 20 20 21 21 21 22 22 22 22 22 23 23 23
7 7 7 7 7 7 7 8 8 9 9 10 10 11 11 12 13 13 14 15 16 17 17 17 18 19 20 21 20 20 21 22 22 22 23 23 23 24 24 24 25 26 26
9 8 8 8 8 8 8 8 9 10 11 11 11 11 11 12 12 13 14 15 16 17 17 17 18 19 20 20 21 21 22 23 23 23 23 23 23 23 24 25 25 26 26
10 10 10 9 9 9 9 10 10 10 11 12 12 12 13 13 14 14 14 15 16 16 17 17 17 19 19 20 20 21 22 23 23 23 23 23 24 24 23 23 23 24 25
11 11 11 11 10 10 11 11 11 11 11 12 13 13 13 14 14 15 16 16 17 17 18 18 19 19 19 19 20 20 21 22 23 23 23 23 23 23 23 23 24 25 25
12 12 12 12 11 11 11 11 12 12 12 12 13 14 15 15 15 16 16 17 18 19 19 19 20 20 21 20 20 21 21 22 22 23 23 23 23 23 23 24 25 25 25
13 13 14 13 13 13 12 12 13 13 13 13 14 14 15 16 16 17 18 18 19 20 20 21 21 22 22 22 22 23 23 23 24 23 23 23 24 24 24 24 25 26 26
14 14 14 14 13 13 13 13 14 14 14 15 15 15 16 17 18 18 19 19 19 20 20 21 22 22 22 23 23 23 24 24 25 24 24 24 24 24 25 26 26 26 26
15 14 14 14 14 14 14 14 14 15 15 16 16 17 17 18 18 18 18 19 19 20 20 21 22 22 22 23 23 23 24 24 24 24 24 24 24 25 26 26 26 26 26
15 14 14 14 14 15 15 15 16 16 17 17 17 18 18 18 18 18 19 20 20 20 20 20 21 22 22 23 23 23 23 23 23 24 24 25 26 26 26 26 26 27 27
17 16 16 15 15 16 16 17 17 18 18 18 18 19 19 19 19 20 20 20 21 21 21 20 21 21 21 22 21 21 22 22 22 23 25 25 26 26 26 26 27 28 28
18 19 18 17 17 17 18 18 18 18 19 19 20 20 20 20 20 20 21 21 21 21 21 21 21 21 21 21 21 21 21 21 22 23 24 24 24 25 26 26 27 27 28
20 18 18 18 18 19 19 19 19 19 20 20 20 20 20 20 21 21 21 22 22 22 21 21 21 21 21 21 21 21 21 21 22 23 24 24 24 25 26 26 27 28 29
20 19 19 19 20 20 20 20 20 20 21 21 21 21 21 21 21 21 21 21 21 21 21 21 21 21 21 21 21 21 22 22 23 24 24 25 25 26 26 27 27 28 29
21 21 21 21 21 21 20 20 20 20 20 21 21 21 21 22 23 23 22 22 22 21 21 22 22 22 22 21 21 21 22 23 23 23 24 25 25 26 27 27 28 29 30
23 22 22 22 23 23 22 22 21 22 22 22 22 23 23 23 23 23 23 23 23 23 22 22 22 22 22 22 22 22 22 23 23 24 24 25 26 26 27 28 29 30 31
24 23 23 22 22 23 23 23 23 24 24 24 24 25 25 25 25 25 25 24 23 23 23 23 22 22 23 23 23 23 23 23 24 24 25 26 27 27 28 29 29 30 31
Wind_Direction
141 152 148 147 151 154 169 186 197 199 198 208 209 206 211 212 216 220 223 230 235 236 235 239 241 241 239 240 240 241 244 245 247 250 252 256 255 259 260 264 267 269 270
129 163 172 180 182 180 180 187 204 218 219 225 221 215 218 219 225 230 232 237 238 239 241 245 247 248 247 244 244 243 245 248 252 252 254 258 258 262 264 265 269 270 273
78 104 191 214 212 217 225 230 225 227 226 227 224 223 228 231 236 237 241 244 248 248 248 248 248 251 253 250 250 246 246 251 254 255 256 257 259 262 266 268 268 269 273
64 53 33 229 227 232 239 246 243 239 242 236 236 237 238 242 249 249 251 251 251 253 251 250 251 252 254 255 252 248 250 252 253 257 258 259 261 263 265 268 268 269 271
24 11 349 277 248 245 245 248 251 252 253 247 247 248 251 254 257 257 254 253 253 254 255 252 252 255 257 257 254 251 252 255 256 258 260 262 265 266 268 270 269 270 271
339 328 320 298 273 264 261 257 255 256 257 253 253 255 258 257 259 260 260 260 260 259 259 258 257 259 262 261 257 255 255 257 259 261 261 263 266 268 271 272 270 270 272
327 317 303 290 279 275 268 261 259 259 259 258 262 263 258 259 260 262 263 262 261 262 263 263 260 261 266 265 262 260 258 260 263 265 263 264 266 269 271 271 270 270 272
337 327 308 300 284 279 275 270 266 266 266 267 268 268 263 262 263 263 263 264 262 263 265 266 264 264 267 267 266 265 262 263 263 265 263 265 268 270 271 271 271 271 271
330 322 311 305 301 292 286 277 271 267 271 271 269 268 268 268 268 268 267 266 265 266 267 268 268 267 270 272 270 266 267 266 265 265 266 267 269 271 273 271 271 272 272
328 321 322 312 300 300 293 287 282 275 275 278 275 273 272 272 272 272 271 270 268 268 268 268 268 268 270 272 271 269 268 268 268 268 267 268 269 270 271 271 270 272 272
330 323 318 313 306 300 294 288 285 281 280 278 279 280 279 278 277 276 276 273 272 272 272 270 270 271 271 271 272 272 269 269 271 272 270 269 270 271 272 273 272 273 272
329 323 318 312 308 302 295 292 291 286 281 279 278 280 281 282 283 283 282 281 277 275 274 274 275 273 273 272 272 272 272 271 272 271 272 271 272 273 273 274 275 274 273
325 321 317 313 311 308 303 296 293 291 287 283 280 281 282 283 283 283 285 284 284 283 282 281 280 278 277 276 275 274 273 273 273 275 273 273 273 272 273 274 274 275 275
323 319 316 312 309 308 306 301 299 294 291 288 285 284 283 283 283 284 284 284 285 285 286 287 287 285 282 280 278 276 276 275 275 276 275 275 275 273 275 276 275 278 279
319 317 314 311 308 305 304 302 299 297 294 292 289 286 284 284 283 284 285 285 285 284 284 285 285 285 284 283 281 279 279 277 278 278 277 277 277 276 276 277 278 281 281
316 314 312 307 304 301 299 299 299 298 296 295 293 290 286 286 286 286 286 286 286 285 284 283 284 284 284 283 281 278 278 279 279 278 275 275 276 276 277 279 281 280 278
313 311 309 306 302 301 298 295 295 296 295 294 295 293 292 291 288 288 288 287 286 285 284 284 283 284 284 284 282 280 279 279 278 278 278 276 277 279 279 278 279 278 277
310 308 306 304 302 301 297 293 293 294 294 295 295 295 294 293 292 291 291 291 290 288 286 285 284 284 284 285 284 283 281 280 280 280 278 277 278 280 281 280 279 278 277
307 307 305 303 301 299 295 292 293 293 293 294 296 297 295 293 292 292 291 290 291 290 288 288 286 286 285 286 285 283 282 281 280 277 276 278 279 280 279 277 278 279 280
302 304 303 300 300 299 296 293 292 293 293 293 295 296 295 294 291 291 291 291 292 291 290 291 290 290 289 289 287 285 283 281 280 278 278 280 281 279 278 279 280 280 281
301 301 298 297 299 300 298 295 293 293 293 294 294 294 294 294 292 291 290 291 292 292 292 293 293 294 294 294 292 290 287 285 284 283 281 281 282 280 280 281 282 282 284
301 300 298 297 296 296 296 294 293 294 295 295 295 294 292 293 295 294 293 293 292 291 291 292 293 294 295 294 293 292 291 288 286 284 283 283 282 282 283 285 285 285 286
302 299 299 297 295 294 295 294 293 293 294 295 295 295 293 294 294 296 295 294 293 291 290 292 294 294 295 293 292 291 290 290 288 286 285 284 285 286 287 287 288 288 288
298 298 296 294 293 292 292 294 296 296 296 294 295 296 295 294 294 294 294 293 293 292 292 292 293 293 292 293 292 292 291 291 289 288 287 287 287 288 288 289 289 290 291
295 295 294 294 292 292 291 292 292 296 296 295 295 295 295 295 295 295 293 292 291 290 290 290 289 289 290 291 292 292 292 291 290 288 287 288 289 290 290 290 291 292 292
291 291 293 294 294 294 292 292 291 295 295 294 294 293 293 291 292 291 290 290 290 289 289 290 290 290 290 290 291 292 291 292 291 289 288 289 290 291 292 293 294 294 294
Height
5885 5885 5885 5885 5885 5885 5885 5886 5886 5886 5886 5887 5888 5888 5889 5890 5890 5891 5892 5892 5892 5893 5892 5893 5893 5894 5894 5895 5895 5896 5896 5897 5898 5898 5898 5899 5899 5899 5899 5899 5899 5899 5899
5885 5885 5885 5885 5885 5885 5885 5885 5886 5886 5886 5887 5887 5888 5889 5889 5890 5890 5890 5891 5891 5891 5891 5892 5892 5892 5892 5893 5893 5894 5894 5895 5895 5896 5896 5897 5897 5897 5897 5897 5897 5897 5897
5885 5885 5885 5885 5885 5885 5885 5885 5886 5886 5886 5887 5887 5888 5888 5888 5889 5889 5889 5889 5889 5890 5890 5890 5890 5890 5891 5890 5890 5891 5892 5893 5893 5894 5894 5894 5894 5895 5895 5895 5895 5894 5894
5886 5885 5885 5885 5885 5885 5885 5885 5885 5886 5886 5886 5887 5887 5887 5887 5887 5887 5888 5888 5888 5888 5888 5888 5888 5888 5888 5888 5888 5889 5890 5890 5891 5891 5891 5892 5892 5892 5892 5892 5892 5892 5891
5886 5886 5885 5885 5885 5885 5885 5885 5885 5885 5885 5885 5885 5885 5885 5886 5886 5886 5886 5886 5886 5886 5886 5885 5886 5886 5886 5886 5886 5886 5887 5888 5888 5888 5889 5889 5889 5889 5889 5889 5888 5888 5888
5886 5885 5885 5884 5884 5884 5884 5884 5884 5884 5884 5883 5883 5884 5884 5884 5884 5884 5884 5884 5883 5883 5883 5883 5883 5883 5883 5883 5883 5884 5884 5884 5885 5885 5886 5886 5886 5886 5886 5885 5885 5885 5885
5885 5884 5884 5884 5883 5883 5882 5882 5882 5882 5882 5882 5882 5882 5882 5881 5881 5881 5881 5881 5881 5880 5880 5880 5880 5880 5880 5880 5880 5880 5881 5881 5881 5881 5881 5882 5882 5882 5882 5881 5881 5881 5881
5885 5884 5883 5882 5882 5881 5881 5881 5880 5880 5880 5880 5880 5880 5879 5880 5879 5879 5878 5878 5878 5878 5877 5877 5877 5876 5876 5876 5876 5877 5877 5877 5877 5877 5877 5877 5877 5878 5877 5877 5877 5876 5876
5884 5883 5882 5881 5880 5880 5879 5879 5878 5878 5878 5878 5878 5878 5877 5877 5876 5876 5875 5875 5875 5874 5874 5874 5873 5873 5873 5873 5873 5873 5873 5873 5873 5873 5873 5873 5872 5872 5872 5872 5872 5871 5871
5883 5882 5881 5880 5879 5879 5878 5877 5877 5876 5876 5875 5875 5874 5874 5874 5873 5873 5872 5871 5871 5870 5870 5870 5869 5869 5869 5868 5868 5868 5868 5868 5868 5868 5868 5868 5867 5867 5867 5866 5866 5866 5865
5882 5881 5880 5879 5878 5877 5876 5875 5875 5874 5873 5873 5872 5872 5871 5871 5870 5869 5869 5868 5867 5866 5866 5865 5865 5865 5864 5864 5864 5864 5863 5863 5863 5863 5862 5862 5861 5861 5861 5861 5860 5860 5859
5882 5880 5879 5877 5876 5874 5874 5873 5872 5871 5871 5870 5870 5869 5868 5868 5867 5866 5865 5864 5863 5863 5862 5861 5861 5860 5859 5859 5859 5858 5858 5858 5857 5857 5856 5856 5856 5855 5855 5854 5854 5853 5852
5880 5879 5877 5875 5874 5872 5871 5870 5870 5869 5868 5867 5866 5866 5865 5865 5864 5863 5862 5861 5860 5858 5857 5856 5856 5856 5855 5854 5854 5853 5852 5852 5851 5851 5850 5850 5849 5849 5848 5848 5847 5846 5846
5879 5877 5875 5874 5872 5870 5869 5868 5867 5866 5865 5864 5863 5862 5862 5861 5860 5859 5858 5857 5856 5855 5853 5852 5851 5851 5850 5849 5848 5848 5847 5846 5846 5845 5844 5844 5843 5843 5842 5841 5841 5840 5839
5877 5875 5873 5872 5870 5868 5867 5866 5864 5863 5862 5861 5860 5859 5858 5857 5856 5855 5854 5853 5852 5851 5849 5848 5847 5846 5845 5844 5843 5842 5842 5841 5840 5839 5838 5838 5837 5837 5836 5835 5834 5833 5833
5874 5872 5871 5869 5867 5866 5864 5863 5862 5860 5859 5857 5856 5855 5854 5853 5852 5851 5850 5849 5847 5846 5845 5843 5842 5841 5839 5838 5837 5836 5836 5835 5834 5833 5832 5831 5831 5830 5830 5829 5828 5827 5826
5871 5869 5867 5866 5864 5862 5861 5860 5858 5857 5856 5854 5853 5852 5850 5849 5848 5846 5845 5844 5842 5841 5840 5839 5837 5835 5834 5833 5831 5830 5829 5828 5827 5827 5826 5825 5825 5824 5823 5822 5821 5820 5819
5868 5866 5864 5862 5861 5859 5858 5856 5855 5854 5852 5851 5849 5848 5846 5845 5843 5842 5840 5839 5837 5836 5834 5833 5831 5830 5828 5826 5825 5824 5823 5822 5821 5820 5819 5819 5818 5817 5816 5815 5814 5813 5812
5864 5862 5861 5859 5857 5855 5854 5852 5851 5850 5848 5847 5845 5843 5842 5840 5839 5837 5835 5834 5832 5830 5829 5827 5825 5824 5822 5820 5819 5817 5816 5815 5814 5813 5813 5812 5811 5810 5809 5808 5807 5806 5805
5861 5859 5857 5855 5853 5851 5850 5848 5847 5845 5844 5842 5840 5839 5837 5835 5834 5832 5830 5829 5827 5825 5823 5821 5820 5818 5816 5814 5812 5811 5810 5809 5808 5807 5806 5805 5804 5803 5802 5801 5800 5798 5797
5857 5855 5853 5851 5849 5848 5846 5844 5842 5841 5839 5837 5835 5834 5832 5830 5828 5827 5825 5823 5821 5819 5817 5816 5814 5812 5810 5809 5807 5805 5804 5802 5801 5800 5798 5798 5797 5795 5794 5793 5792 5791 5789
5852 5850 5849 5847 5845 5843 5842 5840 5838 5836 5834 5832 5830 5828 5826 5824 5823 5821 5819 5817 5815 5813 5812 5810 5808 5807 5805 5803 5801 5799 5798 5796 5795 5794 5792 5791 5789 5788 5787 5786 5784 5783 5781
5849 5847 5845 5843 5841 5839 5837 5835 5832 5831 5829 5827 5825 5823 5821 5819 5817 5815 5813 5811 5809 5807 5806 5804 5802 5800 5799 5797 5795 5794 5792 5790 5789 5787 5785 5784 5782 5781 5779 5778 5776 5775 5773
5844 5841 5839 5837 5835 5833 5831 5829 5827 5825 5823 5821 5819 5817 5815 5813 5811 5809 5807 5805 5803 5801 5799 5798 5796 5794 5793 5791 5789 5787 5786 5784 5782 5780 5779 5777 5775 5774 5772 5770 5768 5766 5764
5838 5836 5833 5831 5829 5828 5825 5823 5821 5819 5817 5815 5813 5811 5809 5807 5805 5803 5801 5799 5797 5795 5793 5791 5789 5788 5786 5784 5783 5781 5779 5778 5776 5774 5772 5771 5769 5767 5764 5762 5760 5758 5756
5832 5830 5828 5826 5824 5822 5819 5817 5815 5813 5811 5809 5807 5805 5803 5801 5799 5797 5795 5793 5791 5789 5787 5785 5783 5781 5779 5778 5776 5774 5773 5771 5769 5767 5765 5763 5761 5759 5757 5754 5752 5749 5746